GW4740 Weather Reports


time (UTC)temp
C
wind
direction
speed
KPH
gust
KPH
rain 1hr
cm
rain 24hr
cm
rain mn
cm
humidity
%
barometer
mb
20260507070022 8 309 8.0 16.1 0.00 0.00 0.00 63 1022.3
20260507064524 8 318 6.4 14.5 0.00 0.00 0.00 62 1022.1
20260507063013 8 323 4.8 11.3 0.00 0.00 0.00 63 1021.8
20260507061518 8 113 4.8 9.7 0.00 0.00 0.00 63 1021.1
20260507060022 8 45 4.8 14.5 0.00 0.00 0.00 63 1021.2
20260507054505 8 62 4.8 20.9 0.00 0.00 0.00 65 1021.1
20260507053011 7 40 12.9 30.6 0.00 0.00 0.00 66 1021.3
20260507051516 7 35 17.7 32.2 0.00 0.00 0.00 66 1021.4
20260507050020 7 25 14.5 27.4 0.00 0.00 0.00 66 1021.5
20260507044508 7 30 16.1 25.7 0.00 0.00 0.00 65 1021.5
20260507043009 7 52 11.3 24.1 0.00 0.00 0.00 66 1021.6
20260507041515 7 22 9.7 29.0 0.00 0.00 0.00 66 1021.1
20260507040017 7 37 17.7 30.6 0.00 0.00 0.00 65 1020.8
20260507034504 8 288 12.9 41.8 0.00 0.00 0.00 64 1020.9
20260507033006 8 11 27.4 48.3 0.00 0.00 0.00 64 1018.9
20260507031510 7 23 29.0 46.7 0.00 0.00 0.00 64 1018.7
20260507030014 8 32 37.0 51.5 0.00 0.00 0.00 64 1018.1
20260507024522 8 30 22.5 45.1 0.00 0.00 0.00 64 1018.1
20260507023005 8 18 25.7 43.5 0.00 0.00 0.00 64 1017.8
20260507021506 9 3 20.9 48.3 0.00 0.00 0.00 64 1017.3
20260507020012 10 11 37.0 54.7 0.00 0.00 0.00 61 1015.8
20260507014520 12 1 29.0 49.9 0.00 0.00 0.00 57 1015.8
20260507013022 15 1 37.0 54.7 0.00 0.00 0.00 45 1015.4
20260507011508 18 43 38.6 53.1 0.00 0.00 0.00 35 1014.0
20260507004514 23 309 8.0 16.1 0.00 0.00 0.00 17 1012.1
20260507003019 23 264 4.8 12.9 0.00 0.00 0.00 18 1011.9
20260506233019 23 239 12.9 19.3 0.00 0.00 0.00 17 1011.6
20260506231522 23 283 4.8 19.3 0.00 0.00 0.00 17 1011.6
20260506230028 23 233 4.8 19.3 0.00 0.00 0.00 18 1011.6
20260506224522 24 284 8.0 16.1 0.00 0.00 0.00 17 1011.5
20260506223016 22 276 6.4 19.3 0.00 0.00 0.00 18 1011.5
20260506221520 23 265 11.3 19.3 0.00 0.00 0.00 18 1011.6
20260506220033 23 288 12.9 25.7 0.00 0.00 0.00 18 1011.9
20260506214529 23 228 4.8 20.9 0.00 0.00 0.00 18 1011.9
20260506213014 23 307 11.3 19.3 0.00 0.00 0.00 17 1011.9
20260506211522 23 302 11.3 29.0 0.00 0.00 0.00 17 1012.2
20260506210022 23 228 14.5 27.4 0.00 0.00 0.00 17 1012.4
20260506204526 24 232 11.3 30.6 0.00 0.00 0.00 16 1012.7
20260506203014 23 293 8.0 29.0 0.00 0.00 0.00 17 1012.8
20260506201519 23 255 12.9 30.6 0.00 0.00 0.00 17 1013.0
20260506200004 23 237 12.9 27.4 0.00 0.00 0.00 17 1013.0
20260506194508 22 291 16.1 24.1 0.00 0.00 0.00 18 1013.0
20260506193012 22 236 16.1 30.6 0.00 0.00 0.00 17 1013.3
20260506191516 22 257 11.3 24.1 0.00 0.00 0.00 18 1013.6
20260506190005 22 248 14.5 24.1 0.00 0.00 0.00 17 1013.8
20260506184506 21 227 11.3 29.0 0.00 0.00 0.00 18 1014.0
20260506183008 21 274 14.5 33.8 0.00 0.00 0.00 16 1014.2
20260506181516 21 254 12.9 32.2 0.00 0.00 0.00 17 1014.3
20260506180021 21 226 12.9 29.0 0.00 0.00 0.00 19 1014.5
20260506174504 19 170 8.0 17.7 0.00 0.00 0.00 37 1014.6
20260506173008 19 27 1.6 9.7 0.00 0.00 0.00 37 1015.0
20260506171509 18 152 6.4 17.7 0.00 0.00 0.00 39 1015.0
20260506170017 18 85 3.2 11.3 0.00 0.00 0.00 40 1015.2
20260506164522 17 164 6.4 11.3 0.00 0.00 0.00 43 1015.2
20260506163006 15 103 6.4 17.7 0.00 0.00 0.00 50 1015.4
20260506161510 15 108 3.2 11.3 0.00 0.00 0.00 51 1015.5
20260506160026 13 79 1.6 11.3 0.00 0.00 0.00 52 1015.6
20260506154524 13 136 1.6 4.8 0.00 0.00 0.00 53 1015.9
20260506153024 12 119 4.8 8.0 0.00 0.00 0.00 56 1016.0
20260506151508 11 151 1.6 6.4 0.00 0.00 0.00 60 1016.0
20260506150012 11 124 6.4 9.7 0.00 0.00 0.00 61 1016.0
20260506144520 10 189 1.6 8.0 0.00 0.00 0.00 64 1015.9
20260506141527 8 166 3.2 8.0 0.00 0.00 0.00 70 1016.3
20260506134523 6 136 4.8 11.3 0.00 0.00 0.00 73 1016.2
20260506133021 6 67 8.0 11.3 0.00 0.00 0.00 74 1016.3
20260506131542 6 37 6.4 12.9 0.00 0.00 0.00 74 1016.3
20260506130037 6 47 6.4 12.9 0.00 0.00 0.00 75 1016.1
20260506124516 6 58 3.2 8.0 0.00 0.00 0.00 75 1015.8
20260506123022 6 79 3.2 9.7 0.00 0.00 0.00 76 1015.5
20260506121523 6 71 1.6 6.4 0.00 0.00 0.00 76 1015.2
20260506120027 6 76 1.6 3.2 0.00 0.00 0.00 76 1015.1
20260506114526 6 85 1.6 4.8 0.00 0.00 0.00 76 1014.9
20260506113023 6 67 0.0 3.2 0.00 0.00 0.00 76 1014.7
20260506111503 6 57 3.2 6.4 0.00 0.00 0.00 75 1014.7
20260506110005 7 44 0.0 6.4 0.00 0.00 0.00 75 1014.6
20260506104508 7 75 1.6 3.2 0.00 0.00 0.00 77 1014.6
20260506103031 7 166 0.0 3.2 0.00 0.00 0.00 77 1014.7
20260506101522 7 154 3.2 4.8 0.00 0.00 0.00 76 1014.9
20260506100003 7 13 0.0 4.8 0.00 0.00 0.00 76 1014.6
20260506094511 7 172 0.0 3.2 0.00 0.00 0.00 75 1014.6
20260506093013 7 164 3.2 8.0 0.00 0.00 0.00 75 1014.3
20260506091518 7 148 3.2 9.7 0.00 0.00 0.00 73 1014.1
20260506090024 8 145 4.8 9.7 0.00 0.00 0.00 72 1013.9
20260506084505 8 141 3.2 4.8 0.00 0.00 0.00 71 1013.8
20260506083010 9 1 3.2 8.0 0.00 0.00 0.00 70 1013.4
20260506081518 10 6 6.4 11.3 0.00 0.00 0.00 68 1013.3
20260506073010 11 360 3.2 9.7 0.00 0.00 0.00 62 1012.9
20260506071512 12 4 4.8 9.7 0.00 0.00 0.00 59 1012.7